EW9485 Weather Reports


Display with metric or nautical units.
time (UTC)temp
F
wind
direction
speed
MPH
gust
MPH
rain 1hr
in
rain 24hr
in
rain mn
in
humidity
%
barometer
mb
20260506222543 81 190 5.0 13.0 0.00 0.00 0.00 67 1014.6
20260506222045 81 186 6.0 14.0 0.00 0.00 0.00 67 1014.6
20260506221551 82 190 6.0 14.0 0.00 0.00 0.00 67 1014.7
20260506221044 81 195 6.0 14.0 0.00 0.00 0.00 70 1014.7
20260506220542 81 165 7.0 14.0 0.00 0.00 0.00 66 1014.5
20260506220052 81 175 6.0 12.0 0.00 0.00 0.00 67 1014.7
20260506215546 81 173 6.0 12.0 0.00 0.00 0.00 65 1014.9
20260506215044 81 189 7.0 12.0 0.00 0.00 0.00 67 1015.0
20260506214550 82 180 5.0 11.0 0.00 0.00 0.00 65 1015.1
20260506214044 82 202 5.0 12.0 0.00 0.00 0.00 69 1015.2
20260506213545 81 192 7.0 12.0 0.00 0.00 0.00 66 1015.2
20260506213054 81 191 8.0 12.0 0.00 0.00 0.00 66 1015.3
20260506212543 82 171 6.0 12.0 0.00 0.00 0.00 65 1015.1
20260506212048 82 143 6.0 12.0 0.00 0.00 0.00 66 1015.3
20260506211554 82 176 7.0 12.0 0.00 0.00 0.00 64 1015.1
20260506211047 83 188 5.0 11.0 0.00 0.00 0.00 63 1015.2
20260506210548 83 173 5.0 11.0 0.00 0.00 0.00 67 1015.3
20260506210057 82 164 6.0 11.0 0.00 0.00 0.00 65 1015.4
20260506205546 83 188 6.0 12.0 0.00 0.00 0.00 64 1015.4
20260506205047 83 186 5.0 13.0 0.00 0.00 0.00 63 1015.4
20260506204558 84 179 4.0 13.0 0.00 0.00 0.00 63 1015.4
20260506204047 84 230 5.0 13.0 0.00 0.00 0.00 61 1015.4
20260506203544 84 218 4.0 11.0 0.00 0.00 0.00 63 1015.5
20260506203058 84 185 5.0 11.0 0.00 0.00 0.00 64 1015.5
20260506202550 84 234 5.0 10.0 0.00 0.00 0.00 60 1015.5
20260506202044 84 236 5.0 12.0 0.00 0.00 0.00 62 1015.9
20260506201558 84 173 6.0 15.0 0.00 0.00 0.00 66 1015.7
20260506201050 83 160 5.0 15.0 0.00 0.00 0.00 65 1016.0
20260506200551 84 155 5.0 12.0 0.00 0.00 0.00 64 1016.1
20260506200109 84 180 5.0 12.0 0.00 0.00 0.00 65 1016.3
20260506195551 85 171 5.0 12.0 0.00 0.00 0.00 64 1016.5
20260506195051 84 166 5.0 11.0 0.00 0.00 0.00 63 1016.4
20260506194611 85 225 5.0 11.0 0.00 0.00 0.00 60 1016.5
20260506194047 84 197 6.0 10.0 0.00 0.00 0.00 62 1016.4
20260506193547 85 175 5.0 11.0 0.00 0.00 0.00 63 1016.6
20260506193052 84 198 6.0 11.0 0.00 0.00 0.00 65 1016.6
20260506192548 84 187 5.0 11.0 0.00 0.00 0.00 65 1016.7
20260506192051 83 232 5.0 11.0 0.00 0.00 0.00 69 1016.8
20260506191552 84 218 5.0 12.0 0.00 0.00 0.00 65 1016.9
20260506191051 85 191 5.0 12.0 0.00 0.00 0.00 67 1016.8
20260506190545 84 219 6.0 13.0 0.00 0.00 0.00 64 1016.9
20260506190049 84 188 5.0 13.0 0.00 0.00 0.00 62 1016.9
20260506185548 83 218 5.0 10.0 0.00 0.00 0.00 64 1016.9
20260506185052 84 178 4.0 10.0 0.00 0.00 0.00 62 1016.9
20260506184602 86 190 4.0 11.0 0.00 0.00 0.00 63 1016.9
20260506184048 85 161 6.0 11.0 0.00 0.00 0.00 65 1016.9
20260506183551 84 184 4.0 11.0 0.00 0.00 0.00 65 1016.9
20260506183102 83 179 4.0 12.0 0.00 0.00 0.00 67 1017.0
20260506182547 84 179 6.0 12.0 0.00 0.00 0.00 65 1016.8
20260506182047 85 198 4.0 12.0 0.00 0.00 0.00 63 1017.0
20260506181558 85 242 3.0 12.0 0.00 0.00 0.00 70 1017.2
20260506181048 84 170 4.0 12.0 0.00 0.00 0.00 64 1017.1
20260506180613 84 186 5.0 12.0 0.00 0.00 0.00 67 1017.2
20260506180057 84 238 4.0 12.0 0.00 0.00 0.00 64 1017.2
20260506175546 84 205 6.0 12.0 0.00 0.00 0.00 66 1017.2
20260506175043 84 187 6.0 12.0 0.00 0.00 0.00 67 1017.2
20260506174549 84 195 4.0 10.0 0.00 0.00 0.00 65 1017.2
20260506174044 83 185 4.0 10.0 0.00 0.00 0.00 69 1017.2
20260506173547 84 207 5.0 9.0 0.00 0.00 0.00 64 1017.2
20260506173054 83 202 4.0 9.0 0.00 0.00 0.00 68 1017.3
20260506172543 83 229 4.0 9.0 0.00 0.00 0.00 66 1017.4
20260506172043 83 183 5.0 9.0 0.00 0.00 0.00 66 1017.4
20260506171600 84 192 5.0 9.0 0.00 0.00 0.00 66 1017.6
20260506171048 83 223 2.0 9.0 0.00 0.00 0.00 68 1017.6
20260506170542 82 217 4.0 10.0 0.00 0.00 0.00 72 1017.6
20260506170054 83 184 5.0 10.0 0.00 0.00 0.00 66 1017.6
20260506165544 83 219 4.0 10.0 0.00 0.00 0.00 69 1017.6
20260506165042 82 183 5.0 9.0 0.00 0.00 0.00 70 1017.5
20260506164557 82 209 3.0 9.0 0.00 0.00 0.00 70 1017.3
20260506164043 81 186 5.0 10.0 0.00 0.00 0.00 71 1017.3
20260506163542 81 211 4.0 10.0 0.00 0.00 0.00 71 1017.3
20260506163055 81 200 4.0 13.0 0.00 0.00 0.00 74 1017.4
20260506162541 82 180 5.0 13.0 0.00 0.00 0.00 71 1017.3
20260506162041 81 193 3.0 10.0 0.00 0.00 0.00 71 1017.3
20260506161604 81 174 6.0 12.0 0.00 0.00 0.00 70 1017.3
20260506161045 80 185 6.0 12.0 0.00 0.00 0.00 72 1017.3
20260506160545 80 194 7.0 12.0 0.00 0.00 0.00 71 1017.1
20260506160049 81 198 5.0 12.0 0.00 0.00 0.00 71 1017.2
20260506155542 80 166 5.0 14.0 0.00 0.00 0.00 73 1017.1
20260506155046 80 165 6.0 17.0 0.00 0.00 0.00 72 1017.1
20260506154550 80 150 5.0 17.0 0.00 0.00 0.00 75 1017.1
20260506154048 79 195 7.0 17.0 0.00 0.00 0.00 73 1017.1
20260506153543 80 162 7.0 15.0 0.00 0.00 0.00 73 1017.0
20260506153054 79 205 6.0 14.0 0.00 0.00 0.00 76 1017.0
20260506152542 79 189 6.0 14.0 0.00 0.00 0.00 74 1017.0
20260506152047 79 161 6.0 13.0 0.00 0.00 0.00 78 1016.8
20260506151605 78 186 6.0 14.0 0.00 0.00 0.00 76 1016.8
20260506151041 78 140 6.0 14.0 0.00 0.00 0.00 75 1016.8
20260506150544 78 199 6.0 13.0 0.00 0.00 0.00 75 1016.8
20260506150055 78 155 6.0 14.0 0.00 0.00 0.00 75 1016.7
20260506145545 78 191 6.0 14.0 0.00 0.00 0.00 75 1016.6
20260506145045 78 185 7.0 13.0 0.00 0.00 0.00 74 1016.6
20260506144602 78 155 7.0 15.0 0.00 0.00 0.00 75 1016.5
20260506144048 79 180 8.0 15.0 0.00 0.00 0.00 74 1016.3
20260506143548 79 205 6.0 12.0 0.00 0.00 0.00 75 1016.4
20260506143057 78 163 4.0 14.0 0.00 0.00 0.00 77 1016.5
20260506142549 78 171 6.0 14.0 0.00 0.00 0.00 75 1016.5
20260506142049 77 181 5.0 14.0 0.00 0.00 0.00 77 1016.4
20260506141549 77 180 5.0 11.0 0.00 0.00 0.00 77 1016.4
20260506141048 77 175 5.0 16.0 0.00 0.00 0.00 78 1016.3
20260506140550 77 190 5.0 16.0 0.00 0.00 0.00 78 1016.2
20260506140103 77 162 6.0 12.0 0.00 0.00 0.00 81 1016.0
20260506135548 76 161 5.0 12.0 0.00 0.00 0.00 83 1016.1
20260506135049 75 185 6.0 13.0 0.00 0.00 0.00 84 1016.1
20260506134555 75 194 5.0 13.0 0.00 0.00 0.00 85 1016.1
20260506134047 75 182 5.0 10.0 0.00 0.00 0.00 87 1016.0
20260506133545 74 175 4.0 11.0 0.00 0.00 0.00 88 1015.9
20260506133052 74 190 5.0 11.0 0.00 0.00 0.00 89 1015.9
20260506132544 74 162 3.0 9.0 0.00 0.00 0.00 90 1015.7
20260506132048 73 180 5.0 9.0 0.00 0.00 0.00 91 1015.7
20260506131558 73 171 4.0 10.0 0.00 0.00 0.00 91 1015.8
20260506131048 72 159 5.0 11.0 0.00 0.00 0.00 91 1015.6
20260506130547 72 159 5.0 11.0 0.00 0.00 0.00 91 1015.6
20260506130110 72 177 4.0 11.0 0.00 0.00 0.00 91 1015.5
20260506125548 72 172 2.0 7.0 0.00 0.00 0.00 91 1015.5
20260506125048 72 0 0.0 0.0 0.00 0.00 0.00 91 1015.4
20260506124556 72 0 0.0 0.0 0.00 0.00 0.00 91 1015.4
20260506124051 71 0 0.0 0.0 0.00 0.00 0.00 91 1015.3
20260506123548 71 0 0.0 0.0 0.00 0.00 0.00 91 1015.3
20260506123048 70 0 0.0 0.0 0.00 0.00 0.00 91 1015.2
20260506122548 70 0 0.0 0.0 0.00 0.00 0.00 91 1015.1
20260506122044 70 0 0.0 0.0 0.00 0.00 0.00 91 1015.0
20260506121551 70 0 0.0 3.0 0.00 0.00 0.00 91 1015.1
20260506121048 70 0 0.0 3.0 0.00 0.00 0.00 91 1014.7
20260506120544 70 0 0.0 3.0 0.00 0.00 0.00 91 1014.7
20260506120053 70 0 0.0 0.0 0.00 0.00 0.00 91 1014.6
20260506115545 70 0 0.0 3.0 0.00 0.00 0.00 90 1014.5
20260506115047 70 0 0.0 5.0 0.00 0.00 0.00 91 1014.5
20260506114554 71 0 0.0 8.0 0.00 0.00 0.00 91 1014.4
20260506114048 71 153 3.0 10.0 0.00 0.00 0.00 91 1014.3
20260506113548 71 172 2.0 10.0 0.00 0.00 0.00 91 1014.3
20260506113049 71 160 3.0 10.0 0.00 0.00 0.00 91 1014.2
20260506112546 71 170 4.0 10.0 0.00 0.00 0.00 91 1014.1
20260506112047 71 169 3.0 7.0 0.00 0.00 0.00 91 1014.1
20260506111551 71 150 2.0 6.0 0.00 0.00 0.00 91 1014.1
20260506111047 70 0 0.0 6.0 0.00 0.00 0.00 91 1014.0
20260506110545 70 0 1.0 6.0 0.00 0.00 0.00 91 1014.1
20260506105547 70 0 0.0 0.0 0.00 0.00 0.00 90 1014.0
20260506105049 70 0 0.0 4.0 0.00 0.00 0.00 90 1013.9
20260506104553 70 0 0.0 4.0 0.00 0.00 0.00 90 1013.9
20260506104048 70 156 0.0 5.0 0.00 0.00 0.00 90 1013.8
20260506103548 70 152 1.0 5.0 0.00 0.00 0.00 90 1013.9
20260506103053 70 0 2.0 5.0 0.00 0.00 0.00 90 1013.7
20260506102547 70 0 0.0 0.0 0.00 0.00 0.00 90 1013.8
20260506102047 70 0 0.0 0.0 0.00 0.00 0.00 90 1013.8
20260506101559 70 0 0.0 0.0 0.00 0.00 0.00 90 1013.8
20260506101048 70 0 0.0 6.0 0.00 0.00 0.00 90 1013.8
20260506100550 70 0 0.0 6.0 0.00 0.00 0.00 90 1013.7
20260506100051 70 162 1.0 6.0 0.00 0.00 0.00 90 1013.8
20260506095552 70 0 2.0 6.0 0.00 0.00 0.00 90 1013.8
20260506095047 70 160 2.0 6.0 0.00 0.00 0.00 90 1013.8
20260506094600 70 0 0.0 5.0 0.00 0.00 0.00 90 1013.9
20260506094044 70 0 0.0 5.0 0.00 0.00 0.00 90 1013.8
20260506093548 70 0 1.0 6.0 0.00 0.00 0.00 90 1013.9
20260506093100 70 0 1.0 6.0 0.00 0.00 0.00 90 1013.9
20260506092547 71 157 2.0 6.0 0.00 0.00 0.00 90 1013.9
20260506092047 71 163 1.0 6.0 0.00 0.00 0.00 90 1013.9
20260506091552 71 164 3.0 6.0 0.00 0.00 0.00 90 1014.0
20260506091052 71 166 3.0 7.0 0.00 0.00 0.00 90 1013.8
20260506090550 71 167 3.0 7.0 0.00 0.00 0.00 90 1013.9
20260506090058 71 170 3.0 7.0 0.00 0.00 0.00 90 1013.9
20260506085603 71 162 4.0 8.0 0.00 0.00 0.00 90 1014.0
20260506085048 71 163 4.0 8.0 0.00 0.00 0.00 90 1014.0
20260506084553 71 146 2.0 6.0 0.00 0.00 0.00 90 1014.1
20260506084048 71 165 2.0 6.0 0.00 0.00 0.00 90 1014.0
20260506083548 71 156 2.0 6.0 0.00 0.00 0.00 90 1014.1
20260506083053 71 166 2.0 7.0 0.00 0.00 0.00 90 1014.2
20260506082549 71 161 3.0 7.0 0.00 0.00 0.00 90 1014.2
20260506082051 71 163 2.0 8.0 0.00 0.00 0.00 90 1014.2
20260506081553 71 170 2.0 8.0 0.00 0.00 0.00 90 1014.3
20260506081047 71 153 3.0 7.0 0.00 0.00 0.00 90 1014.3
20260506080548 71 182 1.0 7.0 0.00 0.00 0.00 90 1014.2
20260506073058 71 167 2.0 7.0 0.00 0.00 0.00 90 1014.2
20260506072548 71 174 4.0 7.0 0.00 0.00 0.00 90 1014.2
20260506072050 71 153 3.0 7.0 0.00 0.00 0.00 90 1014.3
20260506071605 71 0 1.0 5.0 0.00 0.00 0.00 90 1014.4
20260506071050 71 0 1.0 6.0 0.00 0.00 0.00 90 1014.4
20260506070548 71 167 2.0 6.0 0.00 0.00 0.00 90 1014.4
20260506062048 71 170 2.0 7.0 0.00 0.00 0.00 90 1014.5
20260506061555 71 172 3.0 7.0 0.00 0.00 0.00 90 1014.5
20260506061047 71 162 2.0 7.0 0.00 0.00 0.00 90 1014.6
20260506060546 71 190 2.0 6.0 0.00 0.00 0.00 90 1014.7
20260506051052 70 0 0.0 5.0 0.00 0.00 0.00 90 1015.0
20260506050547 70 165 2.0 5.0 0.00 0.00 0.00 90 1015.0
20260506045048 71 165 1.0 5.0 0.00 0.00 0.00 90 1015.2
20260506044601 71 0 0.0 6.0 0.00 0.00 0.00 90 1015.3
20260506044048 71 166 2.0 6.0 0.00 0.00 0.00 89 1015.3
20260506043549 71 153 2.0 6.0 0.00 0.00 0.00 89 1015.4
20260506043047 71 162 2.0 7.0 0.00 0.00 0.00 89 1015.6
20260506042548 71 163 2.0 7.0 0.00 0.00 0.00 89 1015.6
20260506042050 71 163 2.0 5.0 0.00 0.00 0.00 89 1015.6
20260506041604 71 161 2.0 7.0 0.00 0.00 0.00 89 1015.6
20260506041047 71 170 3.0 7.0 0.00 0.00 0.00 89 1015.5
20260506040545 71 153 2.0 7.0 0.00 0.00 0.00 89 1015.7
20260506040054 71 165 2.0 7.0 0.00 0.00 0.00 89 1015.8
20260506035549 71 165 2.0 6.0 0.00 0.00 0.00 89 1015.7
20260506035047 71 169 2.0 6.0 0.00 0.00 0.00 89 1015.8
20260506034554 71 163 1.0 7.0 0.00 0.00 0.00 88 1015.7
20260506034046 71 163 3.0 7.0 0.00 0.00 0.00 88 1015.7
20260506033551 71 155 1.0 6.0 0.00 0.00 0.00 88 1015.6
20260506033051 71 160 1.0 6.0 0.00 0.00 0.00 88 1015.6
20260506032548 71 153 2.0 6.0 0.00 0.00 0.00 88 1015.6
20260506032047 71 155 2.0 7.0 0.00 0.00 0.00 88 1015.7
20260506031555 72 150 2.0 7.0 0.00 0.00 0.00 88 1015.6
20260506031050 72 157 2.0 7.0 0.00 0.00 0.00 88 1015.7
20260506030552 72 173 1.0 9.0 0.00 0.00 0.00 88 1015.7
20260506030051 72 149 2.0 9.0 0.00 0.00 0.00 88 1015.6
20260506025549 72 136 2.0 8.0 0.00 0.00 0.00 87 1015.7
20260506025045 72 181 3.0 8.0 0.00 0.00 0.00 87 1015.8
20260506024550 72 0 3.0 8.0 0.00 0.00 0.00 87 1015.6
20260506024048 72 170 2.0 8.0 0.00 0.00 0.00 87 1015.6
20260506023551 72 165 3.0 8.0 0.00 0.00 0.00 87 1015.6
20260506023051 72 167 4.0 8.0 0.00 0.00 0.00 87 1015.5
20260506022547 72 161 4.0 8.0 0.00 0.00 0.00 87 1015.3
20260506022048 72 163 3.0 7.0 0.00 0.00 0.00 86 1015.4
20260506021556 72 0 3.0 8.0 0.00 0.00 0.00 86 1015.4
20260506021045 72 169 2.0 10.0 0.00 0.00 0.00 86 1015.4
20260506020547 72 159 4.0 10.0 0.00 0.00 0.00 86 1015.7
20260506020048 72 162 3.0 10.0 0.00 0.00 0.00 86 1015.6
20260506015552 72 174 2.0 8.0 0.00 0.00 0.00 85 1015.5
20260506015046 72 160 2.0 7.0 0.00 0.00 0.00 85 1015.6
20260506014557 72 149 2.0 7.0 0.00 0.00 0.00 85 1015.3
20260506014051 72 159 3.0 9.0 0.00 0.00 0.00 85 1015.1
20260506013547 72 167 2.0 9.0 0.00 0.00 0.00 85 1015.1
20260506013052 72 166 3.0 9.0 0.00 0.00 0.00 85 1015.1
20260506012545 72 174 4.0 8.0 0.00 0.00 0.00 85 1015.2
20260506012048 72 167 3.0 10.0 0.00 0.00 0.00 85 1015.2
20260506011551 72 160 4.0 10.0 0.00 0.00 0.00 85 1015.2
20260506011048 72 139 4.0 10.0 0.00 0.00 0.00 84 1014.9
20260506010550 72 152 5.0 10.0 0.00 0.00 0.00 84 1015.0
20260506010057 72 165 4.0 13.0 0.00 0.00 0.00 84 1015.0
20260506005547 72 150 4.0 13.0 0.00 0.00 0.00 84 1014.9
20260506005046 72 171 5.0 10.0 0.00 0.00 0.00 84 1014.7
20260506004600 72 162 4.0 10.0 0.00 0.00 0.00 83 1014.8
20260506004047 72 163 4.0 10.0 0.00 0.00 0.00 83 1015.0
20260506003547 73 173 5.0 14.0 0.00 0.00 0.00 83 1014.7
20260506003047 73 176 6.0 14.0 0.00 0.00 0.00 83 1014.7
20260506002548 73 169 6.0 14.0 0.00 0.00 0.00 82 1014.7
20260506002048 73 150 6.0 11.0 0.00 0.00 0.00 82 1014.7
20260506001609 73 141 5.0 15.0 0.00 0.00 0.00 82 1014.6
20260506001046 73 175 7.0 16.0 0.00 0.00 0.00 81 1014.6
20260506000548 73 130 5.0 16.0 0.00 0.00 0.00 81 1014.5
20260506000051 73 146 6.0 14.0 0.00 0.00 0.00 81 1014.6
20260505235548 74 150 6.0 14.0 0.00 0.00 0.00 80 1014.7
20260505235048 74 157 5.0 14.0 0.00 0.00 0.00 79 1014.7
20260505234554 74 174 6.0 15.0 0.00 0.00 0.00 79 1014.6
20260505234049 74 177 6.0 15.0 0.00 0.00 0.00 78 1014.7
20260505233549 74 173 7.0 15.0 0.00 0.00 0.00 77 1014.8
20260505233058 75 170 7.0 15.0 0.00 0.00 0.00 75 1014.8
20260505232543 75 178 8.0 15.0 0.00 0.00 0.00 73 1014.8
20260505232043 76 165 8.0 14.0 0.00 0.00 0.00 72 1014.7
20260505231555 76 200 7.0 15.0 0.00 0.00 0.00 70 1014.6
20260505231046 76 191 7.0 15.0 0.00 0.00 0.00 69 1014.7
20260505230544 76 161 7.0 17.0 0.00 0.00 0.00 67 1014.7
20260505230049 76 141 8.0 17.0 0.00 0.00 0.00 69 1014.7
20260505225542 77 169 8.0 14.0 0.00 0.00 0.00 66 1014.7
20260505225046 77 192 7.0 14.0 0.00 0.00 0.00 67 1014.7
20260505224552 77 150 7.0 14.0 0.00 0.00 0.00 62 1014.9
20260505224042 77 172 7.0 16.0 0.00 0.00 0.00 61 1014.7
20260505223542 77 163 7.0 18.0 0.00 0.00 0.00 59 1014.8
20260505223059 78 144 9.0 18.0 0.00 0.00 0.00 56 1014.7